Overview Statistics Trail Chart Weather Telemetry Raw packets
 

This is the latest recevied weather packets stored in our database for station/object KC1TEM-13. If no packets are shown the sender has not sent any weather packets the latest 10 day(s).

<< 98 99 100 101 102 103 104 >>
Time Temp. Humidity Pressure Rain* Wind** Luminosity Snow
1787884340 20° C 87% 1017 hPa 0 mm - 0 W/m² -
1787884034 20° C 87% 1016.9 hPa 0 mm - 0 W/m² -
1787883730 20° C 87% 1017.1 hPa 0 mm - 0 W/m² -
1787883426 20° C 87% 1017 hPa 0 mm - 0 W/m² -
1787883124 20° C 87% 1016.9 hPa 0 mm - 0 W/m² -
1787882820 20° C 88% 1016.9 hPa 0 mm - 0 W/m² -
1787882517 20° C 86% 1016.9 hPa 0 mm - 0 W/m² -
1787882217 20° C 87% 1017 hPa 0 mm - 0 W/m² -
1787881612 20° C 87% 1017.1 hPa 0 mm - 0 W/m² -
1787881308 20° C 87% 1017.2 hPa 0 mm - 0 W/m² -
1787881003 20° C 87% 1017 hPa 0 mm - 0 W/m² -
1787880698 20° C 85% 1017.1 hPa 0 mm - 0 W/m² -
1787880396 20° C 84% 1017.1 hPa 0 mm - 0 W/m² -
1787880091 20.56° C 83% 1016.8 hPa 0 mm - 0 W/m² -
1787879794 20.56° C 83% 1016.9 hPa 0 mm - 0 W/m² -
1787879481 20.56° C 80% 1017.1 hPa 0 mm - 0 W/m² -
1787879176 21.11° C 80% 1016.9 hPa 0 mm - 0 W/m² -
1787878878 21.11° C 80% 1017 hPa 0 mm - 0 W/m² -
1787878573 21.11° C 80% 1016.9 hPa 0 mm - 0 W/m² -
1787878268 21.11° C 81% 1016.6 hPa 0 mm - 0 W/m² -
1787877963 21.11° C 82% 1016.7 hPa 0 mm - 0 W/m² -
1787877659 21.11° C 78% 1016.5 hPa 0 mm - 0 W/m² -
1787877354 21.67° C 78% 1016.6 hPa 0 mm - 0 W/m² -
1787877050 21.67° C 78% 1016.4 hPa 0 mm - 0 W/m² -
1787876744 21.67° C 80% 1016.4 hPa 0 mm - 0 W/m² -

* Rain latest hour (hover to see other rain measurements)
** Current wind speed in m/s (hover to see current wind gust speed)